Location: Hamburg
(53.5554°N, 9.9941°E)
Time: 04:09:37
(UTC+02:00)

ISS - Pass Details

Date: 15 May 2021
Orbit: 417 x 422 km, 51.6° (Epoch: 15 June)

Event Time Altitude Azimuth Distance (km) Brightness Sun altitude
Rises 03:38:15 0° 279° (W) 2,375 -0.2 -11.4°
Reaches altitude 10° 03:40:30 10° 268° (W) 1,509 -1.3 -11.2°
Maximum altitude 03:43:29 29° 206° (SSW) 802 -2.9 -10.9°
Drops below altitude 10° 03:46:28 10° 144° (SE) 1,505 -1.1 -10.7°
Sets 03:48:43 0° 133° (SE) 2,368 0.0 -10.5°
